Hourly Data Report for June 05, 2018

TORONTO CITY
ONTARIO
Current Station Operator: ECCC - MSC

43°40'00.000" N
79°24'00.000" W
112.50 m
6158355
71508
XTO

Download Data

Hourly Data (June 2018)
Hourly Data Report for June 5, 2018
TIME
LST
Temp Definition
°C
Dew Point Definition
°C
Rel Hum Definition
%
Precip. Amount Definition
mm

Wind Dir Definition
10's deg

Wind Spd Definition
km/h
Visibility Definition
km
Stn Press Definition
kPa
Hmdx Definition


Wind Chill Definition


Weather Definition


00:00 12.9 8.0 72 0.0 LegendMM LegendMM   99.18     LegendNANA
01:00 13.5 6.7 63 0.0 LegendMM LegendMM   99.18     LegendNANA
02:00 12.5 7.0 69 0.3 LegendMM LegendMM   99.13     LegendNANA
03:00 12.4 6.7 68 0.0 LegendMM LegendMM   99.12     LegendNANA
04:00 12.2 6.2 67 0.0 LegendMM LegendMM   99.15     LegendNANA
05:00 11.9 5.6 66 0.0 LegendMM LegendMM   99.18     LegendNANA
06:00 11.9 6.0 67 0.0 LegendMM LegendMM   99.20     LegendNANA
07:00 12.3 5.9 65 0.0 LegendMM LegendMM   99.24     LegendNANA
08:00 13.6 5.9 60 0.0 LegendMM LegendMM   99.26     LegendNANA
09:00 14.0 6.0 59 0.0 LegendMM LegendMM   99.27     LegendNANA
10:00 14.3 6.3 59 0.0 LegendMM LegendMM   99.29     LegendNANA
11:00 14.7 6.2 57 0.0 LegendMM LegendMM   99.31     LegendNANA
12:00 14.9 6.3 57 0.0 LegendMM LegendMM   99.31     LegendNANA
13:00 15.2 6.8 57 0.0 LegendMM LegendMM   99.27     LegendNANA
14:00 14.7 7.1 60 0.0 LegendMM LegendMM   99.30     LegendNANA
15:00 14.4 7.2 62 0.0 LegendMM LegendMM   99.34     LegendNANA
16:00 13.0 6.1 63 0.0 LegendMM LegendMM   99.43     LegendNANA
17:00 12.6 5.8 63 0.0 LegendMM LegendMM   99.47     LegendNANA
18:00 13.2 5.6 60 0.0 LegendMM LegendMM   99.51     LegendNANA
19:00 12.7 5.9 63 0.0 LegendMM LegendMM   99.54     LegendNANA
20:00 12.6 5.4 61 0.0 LegendMM LegendMM   99.55     LegendNANA
21:00 12.5 5.5 63 0.0 LegendMM LegendMM   99.59     LegendNANA
22:00 12.2 6.3 67 0.0 LegendMM LegendMM   99.61     LegendNANA
23:00 11.6 6.7 72 0.0 LegendMM LegendMM   99.67     LegendNANA

Notes on Data Quality.

Legend

  • E = Estimated
  • M = Missing
  • NA = Not Available*
  • [empty] = Indicates an unobserved value
Date modified: